This is the latest recevied weather packets stored in our database for station/object HB9ZRH-10. If no packets are shown the sender has not sent any weather packets the latest 10 day(s).
| Time | Temp. | Humidity | Pressure | Rain* | Wind** | Luminosity | Snow |
|---|---|---|---|---|---|---|---|
| 1777502990 | 17.22° C | 44% | 1020.3 hPa | - | - | - | - |
| 1777502690 | 17.22° C | 44% | 1020.4 hPa | - | - | - | - |
| 1777502390 | 16.67° C | 44% | 1020.5 hPa | - | - | - | - |
| 1777502090 | 16.11° C | 44% | 1020.5 hPa | - | - | - | - |
| 1777501790 | 15.56° C | 44% | 1020.5 hPa | - | - | - | - |
| 1777501490 | 16.11° C | 44% | 1020.4 hPa | - | - | - | - |
| 1777501190 | 16.67° C | 44% | 1020.4 hPa | - | - | - | - |
| 1777500890 | 15.56° C | 44% | 1020.4 hPa | - | - | - | - |
| 1777500590 | 15.56° C | 44% | 1020.3 hPa | - | - | - | - |
| 1777500290 | 16.67° C | 43% | 1020.3 hPa | - | - | - | - |
| 1777499990 | 17.78° C | 43% | 1020.3 hPa | - | - | - | - |
| 1777499690 | 17.22° C | 43% | 1020.3 hPa | - | - | - | - |
| 1777499390 | 17.22° C | 43% | 1020.4 hPa | - | - | - | - |
| 1777499090 | 18.33° C | 42% | 1020.3 hPa | - | - | - | - |
| 1777498790 | 21.11° C | 40% | 1020.3 hPa | - | - | - | - |
| 1777498490 | 21.11° C | 40% | 1020.2 hPa | - | - | - | - |
| 1777498190 | 22.78° C | 39% | 1020.1 hPa | - | - | - | - |
| 1777497890 | 23.89° C | 38% | 1020 hPa | - | - | - | - |
| 1777497590 | 25.56° C | 37% | 1020 hPa | - | - | - | - |
| 1777497290 | 25.56° C | 37% | 1019.7 hPa | - | - | - | - |
| 1777496990 | 23.89° C | 38% | 1019.7 hPa | - | - | - | - |
| 1777496690 | 22.22° C | 39% | 1019.8 hPa | - | - | - | - |
| 1777496390 | 25.56° C | 37% | 1019.8 hPa | - | - | - | - |
| 1777496090 | 25.56° C | 37% | 1019.8 hPa | - | - | - | - |
| 1777495790 | 25° C | 37% | 1019.7 hPa | - | - | - | - |
* Rain since midnight (hover to see other rain measurements)
** Current wind speed in m/s (hover to see current wind gust speed)